Regional Weather Roundup
Issued by NWS Newport/Morehead, NC

Current Version | Previous Version | Graphics & Text | Print | Product List | Glossary Off
Versions: 1 2 3 4 5 6 7 8 9 10 11 12 13 14 15 16 17 18 19 20 21 22 23 24 25 26 27 28 29 30 31 32 33 34 35 36 37 38 39 40 41 42 43 44 45 46 47 48 49 50

000
ASUS42 KMHX 191014
RWRMHX
WEATHER ROUNDUP FOR EASTERN NORTH CAROLINA
NATIONAL WEATHER SERVICE NEWPORT/MOREHEAD CITY NC
600 AM EDT THU OCT 19 2017

NOTE: "FAIR" INDICATES FEW OR NO CLOUDS BELOW 12,000 FEET
WITH NO SIGNIFICANT WEATHER AND/OR OBSTRUCTIONS TO VISIBILITY

NCZ015>017-031-032-045>047-102-103-191100-
NORTH COAST

CITY           SKY/WX    TMP DP  RH WIND       PRES   REMARKS
EDENTON        CLEAR     55  53  93 CALM      30.29R
ELIZABETH CITY CLEAR     58  57  97 N3        30.28S
KITTY HAWK     SUNNY     65  57  75 CALM      30.26S
MANTEO         CLEAR     61  57  86 E6        30.27S

$$

NCZ045>047-081-094-103-104-191100-
CENTRAL COAST

CITY           SKY/WX    TMP DP  RH WIND       PRES   REMARKS
FRISCO         CLEAR     66  63  90 NE7       30.24S

$$

NCZ095-097-098-100-101-191100-
SOUTHERN COAST

CITY           SKY/WX    TMP DP  RH WIND       PRES   REMARKS
BEAUFORT       CLEAR     62  60  93 N10       30.24S
CEDAR ISLAND   NOT AVBL
JACKSONVILLE   CLEAR     57  57 100 N6        30.25S
PINEY ISLAND     N/A    N/A N/A N/A NE9       30.24S
WILMINGTON     CLEAR     57  55  93 N7        30.24S


$$

NCZ011>013-027>030-043-044-078>080-089-090>093-098-191100-
COASTAL PLAIN

CITY           SKY/WX    TMP DP  RH WIND       PRES   REMARKS
AHOSKIE        CLOUDY    44  44 100 CALM      30.30S
CLINTON        CLEAR     51  51 100 CALM      30.28S
ELIZABETHTOWN  NOT AVBL
GOLDSBORO      CLEAR     51  50  95 CALM      30.27R FOG
GREENVILLE     CLEAR     48  46  93 CALM      30.29R
HAVELOCK       CLEAR     60  59  96 N7        30.26S
KENANSVILLE    FOG       46  46 100 CALM      30.28R VSB 3/4
KINSTON        CLEAR     49  49  99 CALM      30.28S
NEW BERN       CLOUDY    59  58  96 NE5       30.27S
RICHLANDS      CLEAR     55  54  96 N3        30.26S
ROCKY MOUNT    CLEAR     48  48 100 CALM      30.29S
WASHINGTON     CLEAR     52  51  97 CALM      30.28S
WHITEVILLE     CLEAR     54  52  94 CALM      30.25S

$$

AMZ130-135-150-152-154-156-158-170-250-252-270-ANZ085-086-088-633-658-670-191100-
MARINE OBSERVATIONS

STATION/POSITION TIME  TEMP    WIND        PRES    WAVE   SWELL
                       AIR SEA DIR/SP/G            HT/PER HT/PER
                 (UTC) (F)     (DEG/KT/KT) (MB)    (FT/S) (FT/S)
CHESAPEAKE LIGHT NOT AVBL
64 E VA BEACH    0950   67 67   80/ 10/ 10 1025.7    3/ 8   3/ 8
DUCK             0900   67 68   60/ 10/ 11 1024.8
2 E DUCK         0930      69                N/A     3/10   2/11
OREGON INLET     0900   67 65   40/  9/ 12 1024.6
13E OREGON INLT  0948      71                N/A     5/ 9   3/ 9
HATTERAS CG      0900   67 68   40/  7/ 12 1023.9
DIAMOND BUOY     0950   74 81   80/ 10/ 16 1023.1    5/ 9   5/ 9
CAPE LOOKOUT     1000   64     360/ 11/ 14 1023.3
BEAUFORT LAB     0900   63 67   20/  8/ 11 1024.0
30 SE NEW RVR IN 0908   71      40/ 17/ 21 1022.6
30 SE NEW RVR IN NOT AVBL
27 SE WRIGHTSVLE 0908   71 77   60/ 17/ 23 1022.7
5 SE WRIGHTSVLE  0908   67 74   40/ 16/ 25 1023.4
225 S CAPE HAT   0950   77 80   60/ 19/ 25 1018.9    9/ 8
41 SE CHARLESTON 0950   74 79   30/ 19/ 25 1021.0    7/ 9   3/ 9

$$




USA.gov is the U.S. government's official web portal to all federal, state and local government web resources and services.